Regional Weather Roundup
Issued by NWS

Home | Current Version | Previous Version | Graphics & Text | Print | Product List | Glossary On
Versions: 1 2 3 4 5 6 7 8 9 10 11 12 13 14 15 16 17 18 19 20 21 22 23 24 25 26 27 28 29 30 31 32 33 34 35 36 37 38 39 40 41 42 43 44 45 46 47 48 49 50
000
ASUS45 KCYS 231310
RWRWY

WYOMING REGIONAL WEATHER ROUNDUP
NATIONAL WEATHER SERVICE CHEYENNE WY
700 AM MDT MON APR 23 2018

NOTE:  "FAIR" INDICATES FEW OR NO CLOUDS BELOW 12,000 FEET
WITH NO SIGNIFICANT WEATHER AND/OR OBSTRUCTIONS TO VISIBILITY.

WYZ001-231400-
YELLOWSTONE NATIONAL PARK

CITY           SKY/WX    TMP DP  RH WIND       PRES   REMARKS
LK YELLOWSTONE   N/A     31  31 100 CALM      30.12F
W YELLOWSTONE  NOT AVBL

$$
WYZ002>013-054>058-071-098>099-231400-
NORTHERN WYOMING

CITY           SKY/WX    TMP DP  RH WIND       PRES   REMARKS
JACKSON        LGT RAIN  35  34  96 NW5       30.11R WCI  31
CODY           CLOUDY    40  30  67 N18G26    30.14R WCI  31
GREYBULL       MOCLDY    47  33  58 NW25G33   30.03R
WORLAND        FAIR      45  33  63 NW8       30.07R
SHERIDAN       FAIR      44  34  67 NW17      30.09R
BUFFALO        FAIR      45  31  58 N21G28    30.06R
GILLETTE       FAIR      40  36  86 CALM      30.04R
HULETT         FAIR      43  36  75 N3        30.09R
NEWCASTLE      FAIR      37  34  87 CALM      30.07S

$$
WYZ014>020-022>026-101>103-231400-
CENTRAL WYOMING

CITY           SKY/WX    TMP DP  RH WIND       PRES   REMARKS
BIG PINEY      LGT RAIN  37  34  89 NE5       30.14R WCI  33
PINEDALE       LGT RAIN  36  34  93 NW12      30.15R WCI  27
DUBOIS         RAIN      34  32  93 NW17G24   30.09R WCI  23
LANDER         FAIR      44  29  55 NW6       30.01R
RIVERTON       FAIR      44  28  53 N13       30.02R
CASPER         FAIR      33  32  96 W3        30.01S
DOUGLAS        FAIR      41  38  89 SE15      30.04R

$$
WYZ021-027>030-104>119-231400-
SOUTHERN WYOMING

CITY           SKY/WX    TMP DP  RH WIND       PRES   REMARKS
EVANSTON       RAIN      36  35  96 NW12      30.17R FOG     WCI  28
KEMMERER       LGT SNOW  34  32  93 W18G28    30.15R WCI  23
FORT BRIDGER   CLOUDY    40  34  77 NW20G26   30.19R WCI  31
ROCK SPRINGS   MOCLDY    47  26  44 CALM      30.05R
DIXON          CLOUDY    37  31  77 SE8       30.12S WCI  31
RAWLINS          N/A    N/A N/A N/A MISG      30.08R
SARATOGA       CLOUDY    45  30  57 S13       30.10R
LARAMIE        FAIR      36  32  85 S10       30.11R WCI  28
CHEYENNE       FAIR      36  34  92 W5        30.10R WCI  32
TORRINGTON     FAIR      36  36 100 E10       30.07R WCI  28
PINE BLUFFS    FAIR      30  30 100 MISG      30.11R

$$



USA.gov is the U.S. government's official web portal to all federal, state and local government web resources and services.